Weather in Shetpe

Kazakhstan     44°08′19″N   52°09′35″E
temp.,
°C
wind,
m/s
gust,
m/s
humid.,
%
clouds,
%
prec.,
mm/h
press.,
hPa
HPBL,
m
14 april, wed
wed1423:00+19ese451498 0.0 102145
02:00+16se4619100 0.0 102175
05:00+14se3331100 0.0 102022
08:00+13ese343186 0.0 102084
11:00+20ese8101863 0.0 1019712
14:00+24ese89110 0.0 10171645
17:00+26se810105 0.0 10152349
20:00+24ese812152 0.0 1014285
15 april, thu
thu1523:00+21ese8141998 0.0 1014312
02:00+18se10192679 0.1 1014431
05:00+16sse918295 0.1 1014386
08:00+14ssw594460 0.0 1015296
11:00+17w4534100 0.0 1016615
14:00+20w553086 0.0 10161272
17:00+22w66220 0.0 10151664
20:00+18wnw55340 0.0 1016774
16 april, fri
fri1623:00+15wnw365021 0.0 1016210
02:00+13w475590 0.0 1016177
05:00+12wsw226332 0.0 101616
08:00+13sw24577 0.0 1017128
11:00+18wsw454099 0.0 10171085
14:00+21w562867 0.0 10171813
17:00+22wnw55265 0.0 10162116
20:00+19nw65377 0.0 1017613
17 april, sat
sat1723:00+16wsw34465 0.0 101896
02:00+15sw33485 0.0 101724
05:00+13sw22470 0.0 101810
08:00+14sw22424 0.0 101925
11:00+19w1129100 0.0 1019581
14:00+22wnw2322100 0.0 10191893
17:00+24nw3319100 0.0 10182529
20:00+21nnw5627100 0.0 1018664
18 april, sun
sun1823:00+17nw5740100 0.0 1020331
02:00+15wnw2445100 0.0 1019174
05:00+15ssw1143100 0.0 101932
08:00+15nw1248100 0.0 1019106
11:00+16n1153100 0.0 1019377
14:00+21nnw2234100 0.0 10181639
17:00+22n4331100 0.0 10172107
20:00+20nne7637100 0.0 1017800